Вернуться в каталог

STARLINK-3730

АктивенСвязьVLEO
NORAD 52139·PAYLOAD·🇺🇸 United States

Запущен Mar 19, 2022 с Cape Canaveral Space Force Station

Loading…

Ближайшие Пролёты (ближайшие 24 часа)

TLE

СвежийSource: CelesTrak SupGP

Эпоха: Sep 14, 2026, 21:22 UTC

1 52139C 22029BD  26257.89076389  .00018066  00000+0  53398-3 0  2575
2 52139  53.1562 295.5964 0001262 105.0313  14.7590 15.34369342    15

Отслеживайте STARLINK-3730 в реальном времени с AllMySat

Download on the App Store